Wind_Speed
5 5 5 4 4 3 3 3 2 1 2 1 1 2 2 2 3 3 4 4 4 4 5 5 6 6 5 5 6 6 6 7 7 8 8 8 8 8 8 8 9 9 9
5 5 5 5 4 4 4 3 2 2 2 3 3 3 3 4 4 5 5 5 5 5 6 6 6 7 6 6 6 7 7 8 8 9 9 9 9 9 9 9 10 10 10
6 6 6 5 5 5 5 5 4 3 4 4 5 5 5 5 6 6 6 6 6 6 6 7 7 7 7 7 8 8 8 9 9 10 10 10 10 11 11 11 11 11 12
6 7 7 6 6 6 6 6 6 5 5 6 6 7 6 7 7 7 8 8 8 8 7 7 7 8 8 9 9 9 10 10 10 11 11 11 11 11 12 12 12 12 12
7 7 8 8 7 7 7 7 7 7 8 8 8 8 8 8 9 9 9 9 10 10 9 9 9 9 10 10 10 11 11 12 12 12 13 12 13 13 13 13 13 13 13
8 8 9 9 9 9 9 9 9 10 10 10 9 10 10 10 10 11 11 11 11 11 11 11 12 12 12 11 11 11 12 12 12 13 14 14 14 14 13 13 13 14 14
9 9 10 10 11 11 11 11 11 11 12 12 12 12 12 12 12 12 12 13 13 13 13 13 13 13 13 13 13 13 13 14 14 14 15 15 15 14 14 14 15 15 16
11 11 11 11 11 11 12 12 12 12 13 13 13 13 12 12 13 13 13 13 13 13 14 14 14 15 15 15 15 15 15 15 15 15 16 16 15 15 15 15 16 16 17
13 13 13 12 12 12 12 12 13 13 13 14 13 13 14 14 14 14 14 14 14 14 14 15 15 15 16 16 16 15 15 15 15 16 16 16 17 17 17 17 17 17 18
14 14 14 14 13 13 13 13 14 14 15 14 14 15 15 15 15 15 16 16 16 15 16 17 17 17 16 16 16 16 17 16 16 16 17 17 18 18 19 19 19 19 19
15 15 15 15 14 14 14 14 14 15 15 15 15 16 17 17 17 17 17 18 18 17 17 17 17 17 17 17 17 18 18 17 18 18 18 18 18 19 20 21 21 21 21
18 17 17 16 15 15 15 15 15 15 16 16 18 19 19 18 18 18 19 20 20 19 19 19 19 19 19 19 19 19 19 19 20 21 20 20 20 21 21 22 23 24 24
19 19 19 18 17 17 17 17 17 18 18 19 19 20 20 20 20 20 21 21 21 21 22 22 21 21 21 21 21 21 22 22 22 22 22 23 23 23 23 24 24 25 27
20 20 20 20 20 20 20 20 20 21 21 21 21 21 22 22 21 21 21 22 22 22 22 23 23 23 23 23 23 23 23 23 23 24 24 25 25 25 25 26 27 27 28
21 21 21 22 22 22 22 22 23 24 24 24 24 24 24 24 23 23 23 23 23 23 23 23 23 23 24 23 23 24 24 25 26 26 26 27 27 27 27 27 28 29 29
22 22 23 23 24 24 25 26 26 26 25 26 26 26 26 25 25 25 25 25 25 24 24 24 24 25 25 24 25 25 26 27 27 28 28 28 27 27 27 28 28 29 29
22 23 24 25 25 26 27 27 28 27 27 27 27 27 27 27 27 26 26 26 26 26 26 26 25 26 26 26 26 27 27 28 28 28 29 28 28 28 28 28 28 29 30
24 24 26 27 26 26 27 27 27 27 27 27 28 28 28 28 28 27 27 27 27 27 27 27 28 28 28 28 28 29 30 29 29 29 28 28 27 28 28 28 28 29 29
24 25 26 26 27 27 27 27 27 27 27 27 27 27 27 28 28 27 27 27 27 28 28 29 29 30 29 30 30 30 30 30 29 29 29 29 29 29 28 28 28 28 28
24 25 26 26 26 26 26 27 26 26 26 26 26 27 27 27 26 26 26 26 27 27 28 29 28 29 30 31 31 31 31 30 30 31 30 30 30 29 29 28 28 29 28
26 26 26 26 26 26 27 27 26 26 26 26 26 27 27 27 26 26 26 27 27 27 27 28 28 29 30 31 32 31 31 31 31 31 31 30 30 29 29 29 30 30 30
27 27 27 26 26 26 27 27 27 27 27 27 26 27 27 26 26 27 27 28 27 27 27 28 29 30 30 31 31 30 30 31 31 31 31 31 31 30 30 30 31 31 31
28 27 27 26 27 27 28 28 28 28 27 28 27 26 26 27 27 27 27 28 28 29 29 28 29 30 31 30 30 30 29 30 31 31 31 32 32 32 31 31 31 31 31
26 27 28 28 28 28 28 27 27 27 28 27 26 26 26 26 27 27 27 28 29 30 29 29 30 30 31 30 29 29 29 30 30 31 31 32 31 32 32 31 31 31 30
27 28 29 29 28 28 27 27 27 28 28 27 27 27 27 28 28 28 28 29 30 30 30 30 31 31 30 30 30 30 30 30 30 30 31 31 32 32 32 31 31 31 31
25 26 27 27 27 27 26 27 27 27 27 27 27 27 27 28 28 29 29 30 31 31 31 31 31 30 30 30 30 30 31 30 29 30 31 31 31 32 31 30 30 31 30
Wind_Direction
356 358 356 355 3 6 10 23 27 13 12 351 317 309 310 307 308 304 299 291 287 291 290 286 279 279 277 275 275 274 274 273 275 275 276 278 278 278 279 277 275 276 275
342 341 343 341 335 332 336 341 335 328 325 326 316 311 311 305 304 305 304 300 295 290 292 288 285 284 280 280 280 276 273 273 273 274 275 278 278 278 278 279 277 277 276
323 328 328 325 320 319 320 319 315 302 299 303 306 301 301 301 305 306 302 299 295 290 286 287 286 281 278 281 278 274 275 276 275 273 272 273 276 277 277 277 278 278 275
314 319 319 311 313 315 311 307 302 291 290 293 295 293 293 294 297 298 294 291 290 286 280 281 280 282 281 279 278 276 274 275 277 274 274 276 276 282 280 279 277 279 280
300 311 314 311 310 309 301 298 295 287 284 282 288 289 287 288 290 291 291 290 288 288 284 279 278 284 283 283 280 277 275 275 276 277 276 276 276 282 283 284 282 280 281
290 300 307 307 306 304 299 295 294 288 284 284 286 287 288 289 287 287 287 289 289 289 289 287 284 285 284 283 283 281 278 279 279 278 278 279 277 278 280 281 282 281 280
284 286 296 304 303 301 299 295 295 294 292 290 288 286 289 291 294 287 284 285 286 286 286 286 289 288 285 284 283 281 279 279 278 279 279 281 279 278 279 281 282 284 284
286 286 288 297 301 301 301 298 295 298 298 294 289 288 289 291 291 288 287 284 283 284 287 287 287 284 284 284 283 283 279 277 278 280 282 281 280 279 280 282 282 284 285
286 286 285 288 292 296 298 299 298 297 298 293 290 288 288 288 288 287 289 291 285 281 282 285 286 287 285 285 285 284 282 283 282 283 281 280 280 279 280 281 282 282 284
284 282 281 283 285 288 291 292 294 297 298 296 292 290 289 288 286 285 285 287 288 285 282 283 285 287 288 288 288 284 284 284 283 283 281 282 282 281 281 281 282 282 282
282 280 278 278 280 281 282 287 290 293 295 293 292 291 289 287 285 284 283 282 284 285 283 284 287 287 288 286 284 283 284 282 282 283 282 282 281 282 282 281 281 281 283
278 278 278 276 277 280 284 287 289 291 293 293 291 291 290 286 283 283 282 282 283 282 282 284 285 286 286 284 285 283 282 282 282 282 283 282 282 282 283 282 281 281 282
275 275 274 274 275 278 282 286 289 291 290 291 291 290 289 287 283 281 281 282 283 283 282 282 282 283 285 284 284 283 282 282 283 284 284 284 284 284 284 285 284 282 282
273 272 272 272 274 276 279 283 287 289 289 289 289 289 288 288 286 283 283 283 283 283 284 284 283 283 285 286 284 282 282 283 284 285 285 285 284 284 284 284 284 283 282
272 271 271 272 273 275 279 282 284 286 286 286 287 288 289 287 285 283 281 280 280 282 283 284 284 283 283 284 283 281 280 281 283 284 284 284 285 285 285 284 283 282 282
271 271 271 273 274 276 278 280 282 284 284 284 285 286 286 285 284 281 280 278 279 280 281 281 281 281 283 283 282 282 282 281 281 283 285 285 285 286 285 285 285 284 283
272 272 273 276 277 278 278 279 280 282 284 284 283 284 283 282 283 283 280 278 277 277 278 279 280 280 282 283 284 283 282 282 283 282 283 284 283 285 287 287 285 285 285
273 274 275 276 277 278 279 279 280 281 282 283 284 284 283 283 283 282 282 280 278 277 276 278 279 280 281 282 283 283 282 282 282 282 282 283 283 285 286 286 287 288 287
274 275 275 275 276 277 279 281 280 282 282 282 284 283 284 284 283 282 281 280 279 279 279 278 278 279 281 281 281 282 282 282 281 281 282 282 283 284 286 286 287 289 289
275 276 277 276 277 277 278 280 281 282 283 284 285 285 284 284 283 283 283 282 280 281 282 282 281 281 281 280 280 280 281 281 280 279 280 281 282 283 285 286 286 288 288
274 275 275 276 277 278 278 279 280 281 283 285 285 284 283 283 284 285 284 284 283 284 285 284 282 282 282 282 281 281 282 281 280 279 278 279 279 281 283 284 285 286 287
273 274 275 276 278 278 277 278 278 279 281 283 285 284 283 283 284 286 287 286 286 286 285 284 282 282 283 283 282 283 282 281 280 280 279 279 278 279 280 282 284 285 286
272 274 275 276 277 278 278 277 277 278 280 282 283 283 283 283 284 285 286 287 288 288 286 285 283 283 283 284 284 281 280 279 279 280 280 280 278 277 278 279 281 282 284
272 273 275 277 277 278 277 276 277 277 280 282 281 282 283 284 285 287 288 288 290 289 287 287 286 285 284 283 283 282 281 280 279 279 280 280 279 278 278 279 279 281 284
273 274 274 275 275 276 276 276 277 278 280 280 280 281 283 285 285 286 287 288 288 288 289 288 287 285 285 285 283 283 282 281 281 280 280 281 280 279 278 278 279 280 282
273 275 276 276 276 276 277 277 277 279 279 280 280 281 282 284 285 286 288 288 289 290 291 290 289 288 288 286 284 283 283 283 282 282 282 281 280 279 278 279 280 281 281
Height
5914 5913 5912 5911 5910 5909 5908 5907 5906 5906 5905 5905 5904 5903 5903 5902 5901 5901 5900 5899 5899 5898 5898 5897 5896 5895 5895 5894 5894 5893 5893 5892 5892 5892 5891 5891 5890 5889 5889 5889 5888 5888 5887
5914 5913 5912 5911 5910 5909 5908 5907 5906 5906 5905 5904 5903 5903 5902 5901 5900 5900 5899 5898 5898 5897 5896 5896 5895 5894 5893 5893 5892 5892 5891 5891 5890 5890 5889 5889 5889 5888 5887 5886 5886 5885 5885
5914 5913 5912 5911 5910 5909 5908 5907 5906 5905 5904 5903 5902 5902 5901 5900 5899 5898 5898 5897 5896 5895 5895 5894 5893 5892 5891 5891 5890 5889 5889 5888 5888 5887 5887 5887 5886 5885 5885 5884 5883 5883 5882
5913 5912 5911 5910 5909 5908 5907 5906 5904 5903 5903 5902 5901 5901 5900 5899 5898 5897 5896 5895 5894 5894 5893 5892 5891 5890 5889 5888 5888 5887 5886 5886 5885 5885 5884 5884 5883 5882 5882 5881 5880 5880 5879
5911 5911 5910 5908 5907 5906 5905 5904 5903 5902 5901 5900 5900 5899 5898 5897 5896 5895 5894 5893 5892 5891 5891 5890 5889 5888 5887 5886 5885 5884 5884 5883 5882 5882 5881 5880 5879 5878 5878 5877 5877 5876 5876
5910 5909 5908 5907 5906 5904 5903 5902 5901 5901 5900 5899 5898 5897 5896 5894 5894 5893 5892 5891 5890 5889 5888 5887 5886 5886 5885 5884 5883 5881 5881 5880 5879 5878 5877 5877 5876 5875 5874 5874 5873 5872 5872
5908 5907 5906 5905 5903 5902 5901 5900 5899 5898 5897 5896 5895 5894 5893 5892 5891 5890 5890 5889 5887 5886 5886 5885 5883 5883 5881 5880 5879 5878 5878 5877 5875 5874 5873 5873 5872 5872 5871 5870 5869 5869 5868
5905 5904 5903 5902 5901 5900 5899 5897 5897 5896 5895 5893 5892 5891 5890 5889 5888 5887 5886 5885 5884 5883 5882 5881 5880 5879 5878 5877 5876 5875 5874 5873 5872 5871 5869 5869 5868 5867 5867 5866 5866 5865 5864
5902 5901 5900 5899 5898 5897 5896 5895 5894 5893 5891 5890 5888 5887 5887 5886 5885 5884 5882 5882 5880 5879 5878 5877 5876 5875 5874 5873 5872 5871 5869 5868 5867 5867 5865 5865 5864 5863 5862 5862 5861 5861 5859
5898 5897 5897 5896 5895 5894 5893 5892 5891 5889 5887 5886 5885 5884 5883 5882 5881 5880 5879 5878 5877 5875 5874 5874 5872 5871 5870 5869 5867 5866 5865 5864 5863 5862 5861 5860 5859 5859 5858 5857 5856 5855 5854
5894 5893 5892 5892 5891 5890 5889 5888 5887 5885 5884 5882 5881 5880 5879 5877 5876 5875 5874 5873 5872 5871 5870 5869 5868 5867 5865 5864 5863 5862 5861 5860 5859 5857 5856 5855 5854 5853 5852 5852 5850 5849 5848
5889 5888 5888 5887 5886 5886 5885 5884 5882 5881 5880 5879 5877 5876 5874 5873 5872 5871 5870 5868 5867 5866 5865 5864 5863 5862 5861 5860 5858 5857 5856 5855 5854 5852 5851 5850 5849 5848 5847 5846 5844 5843 5842
5884 5883 5882 5882 5881 5881 5880 5879 5878 5876 5875 5874 5872 5871 5869 5868 5867 5866 5864 5863 5862 5861 5860 5858 5857 5856 5855 5854 5853 5851 5850 5849 5848 5847 5845 5844 5843 5842 5840 5839 5838 5837 5835
5878 5877 5877 5876 5876 5876 5875 5874 5873 5871 5870 5868 5867 5865 5864 5862 5861 5860 5858 5857 5856 5855 5853 5852 5851 5850 5849 5847 5846 5845 5844 5843 5842 5840 5839 5837 5836 5835 5833 5832 5831 5829 5828
5872 5872 5871 5871 5870 5870 5869 5868 5867 5866 5864 5863 5861 5859 5857 5856 5855 5853 5852 5851 5850 5848 5847 5846 5845 5844 5843 5841 5840 5838 5837 5836 5835 5834 5832 5830 5829 5827 5826 5824 5823 5822 5820
5866 5865 5865 5864 5864 5863 5862 5861 5860 5859 5857 5856 5854 5852 5850 5849 5848 5846 5845 5844 5843 5841 5840 5839 5838 5837 5836 5834 5833 5831 5830 5828 5827 5826 5824 5823 5821 5820 5818 5816 5815 5814 5812
5859 5859 5858 5858 5857 5856 5855 5854 5853 5851 5850 5848 5847 5845 5843 5842 5840 5839 5837 5836 5835 5834 5833 5832 5831 5830 5828 5827 5825 5824 5822 5821 5819 5817 5816 5815 5813 5812 5810 5808 5807 5805 5804
5853 5852 5851 5850 5850 5849 5847 5846 5845 5843 5842 5841 5839 5837 5836 5834 5832 5831 5829 5828 5827 5826 5825 5824 5823 5821 5820 5819 5817 5816 5814 5812 5811 5809 5808 5807 5805 5804 5802 5800 5799 5797 5795
5845 5845 5844 5843 5842 5841 5840 5838 5837 5835 5834 5833 5831 5829 5828 5826 5825 5823 5821 5820 5819 5818 5816 5815 5814 5813 5812 5811 5809 5807 5805 5804 5802 5801 5800 5799 5797 5796 5794 5792 5790 5789 5787
5838 5837 5836 5835 5834 5833 5832 5831 5829 5828 5826 5825 5823 5822 5820 5818 5817 5815 5813 5812 5810 5809 5807 5806 5805 5804 5803 5801 5799 5798 5796 5795 5794 5792 5791 5790 5789 5788 5786 5784 5782 5781 5779
5830 5829 5828 5828 5827 5826 5825 5823 5822 5821 5819 5818 5816 5814 5812 5811 5809 5807 5806 5804 5802 5801 5799 5798 5796 5795 5793 5792 5790 5788 5787 5786 5785 5783 5782 5781 5780 5779 5777 5776 5774 5773 5771
5822 5821 5821 5820 5819 5818 5817 5816 5814 5813 5812 5810 5808 5806 5804 5803 5801 5800 5798 5796 5794 5793 5791 5789 5788 5786 5784 5782 5781 5779 5778 5777 5775 5774 5773 5772 5771 5770 5768 5767 5766 5764 5762
5814 5814 5813 5812 5811 5810 5809 5807 5806 5805 5804 5802 5800 5798 5797 5795 5793 5792 5790 5788 5786 5784 5783 5781 5779 5777 5775 5773 5771 5770 5769 5767 5766 5765 5764 5763 5762 5761 5759 5758 5756 5755 5753
5806 5805 5805 5804 5803 5801 5800 5799 5798 5797 5795 5794 5792 5790 5789 5787 5785 5783 5781 5780 5778 5775 5773 5772 5770 5768 5766 5763 5762 5760 5759 5757 5756 5755 5754 5752 5751 5751 5750 5748 5747 5745 5744
5798 5797 5796 5795 5794 5793 5792 5791 5789 5788 5787 5785 5784 5782 5781 5779 5778 5776 5774 5772 5769 5767 5765 5763 5761 5759 5757 5755 5753 5751 5750 5748 5746 5745 5744 5743 5742 5741 5740 5739 5737 5736 5734
5790 5789 5788 5786 5785 5784 5783 5782 5781 5779 5778 5776 5775 5773 5772 5771 5769 5767 5765 5763 5761 5758 5756 5754 5751 5749 5747 5745 5743 5742 5740 5739 5737 5736 5735 5734 5732 5731 5730 5729 5728 5726 5725